This is the latest recevied weather packets stored in our database for station/object K7LDN-13. If no packets are shown the sender has not sent any weather packets the latest 10 day(s).
| Time | Temp. | Humidity | Pressure | Rain* | Wind** | Luminosity | Snow |
|---|---|---|---|---|---|---|---|
| 1777693436 | 12.78° C | 36% | 1022.6 hPa | 0 mm | - | 0 W/m² | - |
| 1777693134 | 13.33° C | 36% | 1022.6 hPa | 0 mm | - | 0 W/m² | - |
| 1777692831 | 13.33° C | 35% | 1022.5 hPa | 0 mm | - | 0 W/m² | - |
| 1777692527 | 13.33° C | 35% | 1022.6 hPa | 0 mm | - | 0 W/m² | - |
| 1777692224 | 13.89° C | 34% | 1022.4 hPa | 0 mm | - | 0 W/m² | - |
| 1777691922 | 13.89° C | 33% | 1022.4 hPa | 0 mm | - | 0 W/m² | - |
| 1777691620 | 13.89° C | 33% | 1022.2 hPa | 0 mm | - | 0 W/m² | - |
| 1777691318 | 13.89° C | 32% | 1022.2 hPa | 0 mm | - | 0 W/m² | - |
| 1777691016 | 14.44° C | 31% | 1021.9 hPa | 0 mm | - | 0 W/m² | - |
| 1777690712 | 15° C | 30% | 1022 hPa | 0 mm | - | 0 W/m² | - |
| 1777690410 | 15° C | 30% | 1021.7 hPa | 0 mm | - | 0 W/m² | - |
| 1777690108 | 15° C | 30% | 1022 hPa | 0 mm | - | 0 W/m² | - |
| 1777689806 | 15° C | 29% | 1021.9 hPa | 0 mm | - | 0 W/m² | - |
| 1777689503 | 15.56° C | 28% | 1021.9 hPa | 0 mm | - | 0 W/m² | - |
| 1777689201 | 15.56° C | 28% | 1021.7 hPa | 0 mm | - | 1 W/m² | - |
| 1777688899 | 15.56° C | 28% | 1021.7 hPa | 0 mm | - | 2 W/m² | - |
| 1777688595 | 15.56° C | 28% | 1021.7 hPa | 0 mm | - | 4 W/m² | - |
| 1777688292 | 15.56° C | 28% | 1021.9 hPa | 0 mm | - | 7 W/m² | - |
| 1777687989 | 16.11° C | 28% | 1021.7 hPa | 0 mm | - | 10 W/m² | - |
| 1777687686 | 16.11° C | 28% | 1021.6 hPa | 0 mm | - | 14 W/m² | - |
| 1777687384 | 16.11° C | 27% | 1021.7 hPa | 0 mm | - | 18 W/m² | - |
| 1777687081 | 16.67° C | 27% | 1021.6 hPa | 0 mm | - | 23 W/m² | - |
| 1777686777 | 16.67° C | 27% | 1021.6 hPa | 0 mm | - | 29 W/m² | - |
| 1777686475 | 17.22° C | 26% | 1021.4 hPa | 0 mm | - | 34 W/m² | - |
| 1777686172 | 17.22° C | 26% | 1021.4 hPa | 0 mm | - | 39 W/m² | - |
* Rain latest hour (hover to see other rain measurements)
** Current wind speed in m/s (hover to see current wind gust speed)